Flag for Germany Weather past 2 weeks in Heilbronn, Baden-Württemberg, Germany

Now
31 °F

Light snow. Low clouds.


Feels Like: 23 °F
Forecast: 12 / 34 °F
Wind: 9 mph from Southeast

Location: Oehringen

Current Time: Dec 27, 2014 at 11:57:31 AM

Latest Report: Dec 27, 2014 at 11:00 AM


Visibility: 1 mi

Pressure: 29.59 "Hg

Humidity: 93%

Dew point: 29 °F

Location of HeilbronnLocation

Historic Weather in Heilbronn — Graph

°F

Heilbronn temperature yesterday

Maximum temperature yesterday: 37 °F (at 12:00 AM)
Minimum temperature yesterday: 32 °F (at 11:00 PM)
Average temperature yesterday: 34 °F

Past Weeks' High & Low Weather Summary

 TemperatureHumidityPressure
High53 °F (Dec 18, 8:00 PM)100% (Dec 15, 4:00 AM)30.54 "Hg (Dec 15, 4:00 AM)
Low31 °F (Dec 27, 2:00 AM)57% (Dec 13, 10:00 AM)29.64 "Hg (Dec 27, 10:00 AM)
Average43 °F85%30.13 "Hg
* Reported Dec 12 10:00 AM — Dec 27 10:00 AM, Heilbronn, Weather by CustomWeather, © 2014

Note: Actual official high and low records may vary slightly from our data, if they occured in-between our weather recording intervals... More about our weather records

Advertising

Heilbronn weather history for previous 24 hours

 ConditionsComfort  
Time TempWeatherWind HumidityBarometerVisibility
10:00 AM
Dec 27
31 °FSnow. Low clouds.7 mph95%29.64 "Hg1 mi
9:00 AM32 °FLight snow. Low clouds.7 mph93%29.70 "Hg1 mi
8:00 AM33 °FLight freezing rain. Overcast.7 mph86%29.76 "Hg3 mi
7:00 AM32 °FOvercast.6 mph85%29.82 "Hg5 mi
6:00 AM32 °FOvercast.6 mph85%29.89 "Hg6 mi
5:00 AM32 °FOvercast.2 mph87%29.96 "Hg6 mi
4:00 AM32 °FOvercast.3 mph87%30.03 "Hg7 mi
3:00 AM31 °FOvercast.2 mph92%30.11 "Hg5 mi
2:00 AM31 °FFog.1 mph94%30.16 "Hg4 mi
1:00 AM31 °FFog.2 mph95%30.20 "Hg4 mi
12:00 AM32 °FFog.1 mph96%30.24 "Hg4 mi
11:00 PM
Dec 26
32 °FFog.2 mph98%30.27 "Hg3 mi
10:00 PM32 °FPassing clouds.2 mph98%30.31 "Hg3 mi
9:00 PM33 °FLight snow. Low clouds.1 mph100%30.34 "Hg3 mi
8:00 PM34 °FLow clouds.1 mph95%30.36 "Hg7 mi
7:00 PM34 °FLight rain. Overcast.1 mph95%30.37 "Hg3 mi
6:00 PM35 °FOvercast.1 mph93%30.38 "Hg6 mi
5:00 PM35 °FOvercast.2 mph92%30.39 "Hg6 mi
4:00 PM36 °FOvercast.3 mph89%30.39 "Hg8 mi
3:00 PM36 °FOvercast.3 mph90%30.39 "Hg9 mi
2:00 PM36 °FLight rain. Overcast.5 mph88%30.40 "Hg4 mi
1:00 PM37 °FDrizzle. Low clouds.6 mph88%30.41 "Hg6 mi
12:00 PM36 °FLow clouds.5 mph90%30.42 "Hg6 mi
11:00 AM35 °FFog.3 mph95%30.44 "Hg3 mi
Weather by CustomWeather, © 2014

See weather overviewHow to use our weather pages